User: anonymous   Login
Location: Fort Wayne
(41.1310°N, 85.1290°W)
Time: 01:42:33
(UTC-04:00)
Language:

IDEFIX/ARIANE 42P - Orbit

View from above orbital plane
View from above orbital plane
View from above satellite
View from above satellite

Ground track
Ground track

The orbit data is extracted from the following two-line orbital elements,

1 27422U 02021B   15152.73605231  .00000087  00000-0  50431-4 0  9995
2 27422 098.2578 182.7944 0011046 291.3133 068.6870 14.29185724680054
Epoch (UTC): 01 June 2015 17:39:54
Eccentricity: 0.0011046
inclination: 98.2578°
perigee height: 786 km
apogee height: 802 km
right ascension of ascending node: 182.7944°
argument of perigee: 291.3133°
revolutions per day: 14.29185724
mean anomaly at epoch: 68.6870°
orbit number at epoch: 68005

The dashed part of the orbit path shows where the satellite is in the earth's shadow,  

DLR